Flight Track Log - Related Links

Times and Time Zones

All times are in EDT time to prevent confusion due to time zone crossing. See the CTL309 flight status page for this flight to view local times or setup timezone preferences in your user account.

Time Position Orientation Groundspeed Altitude Reporting Facility
EDT Latitude Longitude Course Direction KTS MPH feet Rate Location/Type
Thu 10:19:10 PM 41.5253 -81.6703 North 93 107 1,200  Level Cleveland Center
Thu 10:19:41 PM 41.5378 -81.6678 North 107 123 2,000 1,385 Climbing Cleveland Center
Thu 10:20:41 PM 41.5669 -81.6767 347° North 106 122 3,300 1,181 Climbing Cleveland Center
Thu 10:21:48 PM 41.5569 -81.6431 112° Southeast 130 150 4,500 1,091 Climbing Cleveland Center
Thu 10:22:42 PM 41.5281 -81.6178 147° Southeast 133 153 5,500 783 Climbing Cleveland Center
Thu 10:23:43 PM 41.4944 -81.6200 183° South 146 168 6,000 246 Climbing Cleveland Center
Thu 10:24:44 PM 41.4567 -81.6608 219° Southwest 181 208 6,000  Level Cleveland Center
Thu 10:25:44 PM 41.4189 -81.7017 219° Southwest 171 197 6,000  Level Cleveland Center
Thu 10:26:45 PM 41.3786 -81.7425 217° Southwest 173 199 6,000  Level Cleveland Center
Thu 10:27:52 PM 41.3367 -81.7861 218° Southwest 172 198 6,000  Level Cleveland Center
Thu 10:28:52 PM 41.3006 -81.8297 222° Southwest 171 197 6,000  Level Cleveland Center
Thu 10:29:53 PM 41.2669 -81.8706 222° Southwest 170 196 6,000  Level Cleveland Center
Thu 10:30:53 PM 41.2289 -81.9139 221° Southwest 174 200 6,000  Level Cleveland Center
Thu 10:31:48 PM 41.1950 -81.9492 218° Southwest 172 198 6,000  Level Cleveland Center
Thu 10:32:49 PM 41.1592 -81.9869 218° Southwest 169 194 6,000 50 Level Cleveland Center
Thu 10:33:49 PM 41.1211 -82.0303 221° Southwest 170 196 6,100 39 Climbing Cleveland Center
Thu 10:35:23 PM 41.0686 -82.0825 217° Southwest 171 197 6,100 -38 Level Indianapolis Center
Thu 10:36:25 PM 41.0300 -82.1167 214° Southwest 168 193 6,000 -49 Descending Indianapolis Center
Thu 10:37:26 PM 40.9919 -82.1569 219° Southwest 172 198 6,000  Level Indianapolis Center
Thu 10:38:27 PM 40.9553 -82.1958 219° Southwest 168 193 6,000 -49 Level Indianapolis Center
Thu 10:39:28 PM 40.9178 -82.2347 218° Southwest 170 196 5,900  Descending Indianapolis Center
Thu 10:40:29 PM 40.8742 -82.2794 218° Southwest 169 194 6,000 49 Climbing Indianapolis Center
Thu 10:41:30 PM 40.8364 -82.3181 218° Southwest 169 194 6,000  Level Indianapolis Center
Thu 10:42:32 PM 40.7994 -82.3586 220° Southwest 170 196 6,000  Level Indianapolis Center
Thu 10:43:33 PM 40.7625 -82.3989 220° Southwest 170 196 6,000 -49 Level Indianapolis Center
Thu 10:44:34 PM 40.7233 -82.4367 216° Southwest 173 199 5,900 -98 Descending Indianapolis Center
Thu 10:45:35 PM 40.6867 -82.4778 220° Southwest 173 199 5,800 -49 Descending Indianapolis Center
Thu 10:46:36 PM 40.6489 -82.5167 218° Southwest 170 196 5,800 98 Level Indianapolis Center
Thu 10:47:37 PM 40.6139 -82.5583 222° Southwest 169 194 6,000 49 Climbing Indianapolis Center
Thu 10:48:38 PM 40.5742 -82.5933 214° Southwest 170 196 5,900 -49 Descending Indianapolis Center
Thu 10:49:40 PM 40.5358 -82.6319 217° Southwest 172 198 5,900 49 Level Indianapolis Center
Thu 10:50:41 PM 40.5036 -82.6789 228° Southwest 172 198 6,000  Climbing Indianapolis Center
Thu 10:51:42 PM 40.4736 -82.7283 231° Southwest 172 198 5,900 -306 Descending Indianapolis Center
Thu 10:52:19 PM 40.4494 -82.7669 231° Southwest 174 200 5,500 -689 Descending Indianapolis Center
Thu 10:52:43 PM 40.4392 -82.7775 218° Southwest 179 206 5,200 -1,100 Descending Indianapolis Center
Thu 10:53:19 PM 40.4125 -82.8203 231° Southwest 208 239 4,400 -984 Descending Indianapolis Center
Thu 10:53:44 PM 40.4025 -82.8308 219° Southwest 199 229 4,200 -492 Descending Indianapolis Center
Thu 10:54:20 PM 40.3733 -82.8733 228° Southwest 204 235 3,900 -295 Descending Indianapolis Center
Thu 10:54:45 PM 40.3581 -82.8906 221° Southwest 197 227 3,900  Level Indianapolis Center
Thu 10:55:21 PM 40.3369 -82.9156 222° Southwest 175 201 3,900  Level Indianapolis Center
Thu 10:55:46 PM 40.3228 -82.9356 227° Southwest 184 212 3,900  Level Indianapolis Center
Thu 10:56:21 PM 40.3047 -82.9611 227° Southwest 167 192 3,900  Level Indianapolis Center
Thu 10:56:47 PM 40.2917 -82.9800 228° Southwest 173 199 3,900 -98 Level Indianapolis Center
Thu 10:57:22 PM 40.2744 -83.0069 230° Southwest 167 192 3,800  Descending Indianapolis Center
Thu 10:57:49 PM 40.2594 -83.0261 224° Southwest 170 196 3,900  Climbing Indianapolis Center
Thu 10:58:22 PM 40.2397 -83.0547 228° Southwest 169 194 3,800  Descending Indianapolis Center
Thu 10:58:50 PM 40.2269 -83.0719 226° Southwest 170 196 3,900 -393 Climbing Indianapolis Center
Thu 10:59:23 PM 40.2053 -83.1000 225° Southwest 174 200 3,400 -689 Descending Indianapolis Center
Thu 10:59:51 PM 40.1958 -83.1217 240° Southwest 173 199 3,200 -492 Descending Indianapolis Center
Thu 11:00:24 PM 40.1819 -83.1628 246° West 190 219 2,900 -295 Descending Indianapolis Center
Thu 11:00:52 PM 40.1722 -83.1867 242° Southwest 188 216 2,900  Level Indianapolis Center
Thu 11:01:24 PM 40.1572 -83.2197 239° Southwest 177 204 2,900 -98 Level Indianapolis Center
Thu 11:01:53 PM 40.1483 -83.2428 243° Southwest 184 212 2,800  Descending Indianapolis Center
Thu 11:02:25 PM 40.1344 -83.2744 240° Southwest 175 201 2,900 98 Climbing Indianapolis Center
Thu 11:02:54 PM 40.1161 -83.2781 189° South 182 209 2,900  Level Indianapolis Center
Thu 11:03:26 PM 40.0864 -83.2714 170° South 164 189 2,900 -98 Level Indianapolis Center
Thu 11:03:55 PM 40.0769 -83.2556 128° Southeast 166 191 2,800  Descending Indianapolis Center
Thu 11:04:26 PM 40.0708 -83.2258 105° East 138 159 2,900  Climbing Indianapolis Center
Thu 11:04:57 PM 40.0717 -83.2058 87° East 147 169 2,800 -492 Descending Indianapolis Center
Thu 11:05:27 PM 40.0739 -83.1825 83° East 113 130 2,400 -590 Descending Indianapolis Center
Thu 11:05:58 PM 40.0742 -83.1667 89° East 121 139 2,200 -600 Descending Indianapolis Center
Thu 11:06:27 PM 40.0744 -83.1444 89° East 107 123 1,800 -590 Descending Indianapolis Center
Thu 11:06:59 PM 40.0750 -83.1267 88° East 113 130 1,600 -590 Descending Indianapolis Center
Thu 11:07:28 PM 40.0753 -83.1036 89° East 110 127 1,200 -393 Descending Indianapolis Center
Thu 11:08:00 PM 40.0756 -83.0889 89° East 110 127 1,200  Level Indianapolis Center
Thu 11:09:00 PM 40.0667 -83.0667 90° East  Level FlightAware Approximate
Thu 11:16:00 PM 40.0798 -83.0732 90° East  Level Estimated

Login

Don't have an account? Register now (free) for customized features, flight alerts, and more!